This is the latest recevied weather packets stored in our database for station/object F6HFY-10. If no packets are shown the sender has not sent any weather packets the latest 10 day(s).
| Time | Temp. | Humidity | Pressure | Rain* | Wind** | Luminosity | Snow |
|---|---|---|---|---|---|---|---|
| 1777938872 | 19.44° C | 65% | 1015.3 hPa | - | - | - | - |
| 1777937071 | 19.44° C | 65% | 1015.4 hPa | - | - | - | - |
| 1777935274 | 19.44° C | 66% | 1015.4 hPa | - | - | - | - |
| 1777933474 | 20° C | 65% | 1015.7 hPa | - | - | - | - |
| 1777931674 | 19.44° C | 66% | 1016.1 hPa | - | - | - | - |
| 1777929873 | 20° C | 65% | 1016.3 hPa | - | - | - | - |
| 1777928073 | 20° C | 65% | 1016.4 hPa | - | - | - | - |
| 1777926273 | 20.56° C | 65% | 1016.2 hPa | - | - | - | - |
| 1777924473 | 20.56° C | 65% | 1015.9 hPa | - | - | - | - |
| 1777922673 | 20° C | 66% | 1015.5 hPa | - | - | - | - |
| 1777920873 | 20° C | 65% | 1015.3 hPa | - | - | - | - |
| 1777919073 | 20.56° C | 64% | 1015.2 hPa | - | - | - | - |
| 1777917272 | 20.56° C | 64% | 1015 hPa | - | - | - | - |
| 1777915472 | 20.56° C | 64% | 1015.1 hPa | - | - | - | - |
| 1777913675 | 20.56° C | 64% | 1015 hPa | - | - | - | - |
| 1777911875 | 20.56° C | 64% | 1015.1 hPa | - | - | - | - |
| 1777910075 | 21.11° C | 64% | 1014.6 hPa | - | - | - | - |
| 1777908275 | 21.11° C | 65% | 1014.7 hPa | - | - | - | - |
| 1777906475 | 21.11° C | 65% | 1014.7 hPa | - | - | - | - |
| 1777904674 | 21.11° C | 64% | 1014 hPa | - | - | - | - |
| 1777902874 | 21.11° C | 65% | 1013.9 hPa | - | - | - | - |
| 1777901074 | 21.67° C | 66% | 1014 hPa | - | - | - | - |
| 1777899274 | 21.67° C | 65% | 1013.8 hPa | - | - | - | - |
| 1777897474 | 21.11° C | 65% | 1014 hPa | - | - | - | - |
| 1777895673 | 21.11° C | 65% | 1014.2 hPa | - | - | - | - |
* Rain since midnight (hover to see other rain measurements)
** Current wind speed in m/s (hover to see current wind gust speed)